Time,TemperatureF,DewpointF,PressureIn,WindDirection,WindDirectionDegrees,WindSpeedMPH,WindSpeedGustMPH,Humidity,HourlyPrecipIn,Conditions,Clouds,dailyrainin,SoftwareType,DateUTC
2013-10-29 00:01:00,46.0,42.0,29.18,SSW,202,0.0,0.0,86,0.00,,,0.00,VWS V14.01,2013-10-29 00:01:00,
2013-10-29 00:06:00,46.0,42.0,29.18,SSW,202,0.0,0.0,86,0.00,,,0.00,VWS V14.01,2013-10-29 00:06:00,
2013-10-29 00:12:00,46.0,42.3,29.19,SSE,157,0.0,0.0,87,0.00,,,0.00,VWS V14.01,2013-10-29 00:12:00,
2013-10-29 00:18:00,45.9,42.3,29.19,SW,225,0.0,0.0,87,0.00,,,0.00,VWS V14.01,2013-10-29 00:18:00,
2013-10-29 00:24:00,45.7,42.1,29.19,SW,225,0.0,0.0,87,0.00,,,0.00,VWS V14.01,2013-10-29 00:24:00,
2013-10-29 00:30:00,45.7,42.1,29.19,South,180,0.0,0.0,87,0.00,,,0.00,VWS V14.01,2013-10-29 00:30:00,
2013-10-29 00:36:00,45.7,42.1,29.19,North,0,0.0,0.0,87,0.00,,,0.00,VWS V14.01,2013-10-29 00:36:00,
2013-10-29 00:42:00,45.7,42.1,29.20,SW,225,0.0,0.0,87,0.00,,,0.00,VWS V14.01,2013-10-29 00:42:00,
2013-10-29 00:47:00,45.7,42.4,29.20,SSW,202,0.0,0.0,88,0.00,,,0.00,VWS V14.01,2013-10-29 00:47:00,
2013-10-29 00:52:00,45.7,42.4,29.20,SSW,202,0.0,0.0,88,0.00,,,0.00,VWS V14.01,2013-10-29 00:52:00,
2013-10-29 00:58:00,45.5,42.2,29.21,SW,225,0.0,0.0,88,0.00,,,0.00,VWS V14.01,2013-10-29 00:58:00,
2013-10-29 01:04:00,45.5,42.2,29.20,SW,225,0.0,0.0,88,0.00,,,0.00,VWS V14.01,2013-10-29 01:04:00,
2013-10-29 01:10:00,45.3,42.0,29.21,North,0,0.0,0.0,88,0.00,,,0.00,VWS V14.01,2013-10-29 01:10:00,
2013-10-29 01:16:00,45.1,41.8,29.22,SSW,202,0.0,0.0,88,0.00,,,0.00,VWS V14.01,2013-10-29 01:16:00,
2013-10-29 01:22:00,45.1,41.8,29.21,SW,225,0.0,0.0,88,0.00,,,0.00,VWS V14.01,2013-10-29 01:22:00,
2013-10-29 01:28:00,45.0,42.0,29.22,North,0,0.0,0.0,89,0.00,,,0.00,VWS V14.01,2013-10-29 01:28:00,
2013-10-29 01:33:00,45.0,42.0,29.22,North,0,0.0,0.0,89,0.00,,,0.00,VWS V14.01,2013-10-29 01:33:00,
2013-10-29 01:39:00,45.0,42.2,29.23,North,0,0.0,0.0,90,0.00,,,0.00,VWS V14.01,2013-10-29 01:39:00,
2013-10-29 01:44:00,45.1,42.3,29.23,North,0,0.0,0.0,90,0.00,,,0.00,VWS V14.01,2013-10-29 01:44:00,
2013-10-29 01:50:00,45.1,42.3,29.23,SW,225,0.0,0.0,90,0.00,,,0.00,VWS V14.01,2013-10-29 01:50:00,
2013-10-29 01:56:00,45.0,42.2,29.23,SW,225,0.0,0.0,90,0.00,,,0.00,VWS V14.01,2013-10-29 01:56:00,
2013-10-29 02:03:00,45.0,42.2,29.23,SW,225,0.0,0.0,90,0.00,,,0.00,VWS V14.01,2013-10-29 02:03:00,
2013-10-29 02:09:00,44.8,42.0,29.23,SW,225,0.0,0.0,90,0.00,,,0.00,VWS V14.01,2013-10-29 02:09:00,
2013-10-29 02:15:00,44.8,42.0,29.24,North,0,0.0,0.0,90,0.00,,,0.00,VWS V14.01,2013-10-29 02:15:00,
2013-10-29 02:20:00,44.8,42.0,29.24,SSW,202,0.0,0.0,90,0.00,,,0.00,VWS V14.01,2013-10-29 02:20:00,
2013-10-29 02:26:00,44.8,42.0,29.24,SSW,202,0.0,0.0,90,0.00,,,0.00,VWS V14.01,2013-10-29 02:26:00,
2013-10-29 02:31:00,44.8,42.0,29.23,SW,225,0.0,0.0,90,0.00,,,0.00,VWS V14.01,2013-10-29 02:31:00,
2013-10-29 02:37:00,44.6,41.8,29.24,SSW,202,0.0,0.0,90,0.00,,,0.00,VWS V14.01,2013-10-29 02:37:00,
2013-10-29 02:42:00,44.6,42.1,29.24,SW,225,0.0,0.0,91,0.00,,,0.00,VWS V14.01,2013-10-29 02:42:00,
2013-10-29 02:48:00,44.6,42.1,29.24,SSW,202,0.0,0.0,91,0.00,,,0.00,VWS V14.01,2013-10-29 02:48:00,
2013-10-29 02:54:00,44.4,41.9,29.24,SSW,202,0.0,0.0,91,0.00,,,0.00,VWS V14.01,2013-10-29 02:54:00,
2013-10-29 02:59:00,44.4,41.9,29.25,SW,225,0.0,0.0,91,0.00,,,0.00,VWS V14.01,2013-10-29 02:59:00,
2013-10-29 03:05:00,44.4,41.9,29.25,South,180,0.0,0.0,91,0.00,,,0.00,VWS V14.01,2013-10-29 03:05:00,
2013-10-29 03:11:00,44.4,41.9,29.25,SSW,202,0.0,0.0,91,0.00,,,0.00,VWS V14.01,2013-10-29 03:11:00,
2013-10-29 03:17:00,44.4,42.2,29.25,SSW,202,0.0,0.0,92,0.00,,,0.00,VWS V14.01,2013-10-29 03:17:00,
2013-10-29 03:23:00,44.6,42.1,29.26,SW,225,0.0,0.0,91,0.00,,,0.00,VWS V14.01,2013-10-29 03:23:00,
2013-10-29 03:28:00,44.4,41.9,29.26,SW,225,0.0,0.0,91,0.00,,,0.00,VWS V14.01,2013-10-29 03:28:00,
2013-10-29 03:33:00,44.4,41.9,29.26,SW,225,0.0,0.0,91,0.00,,,0.00,VWS V14.01,2013-10-29 03:33:00,
2013-10-29 03:39:00,44.4,41.9,29.26,SSW,202,0.0,0.0,91,0.00,,,0.00,VWS V14.01,2013-10-29 03:39:00,
2013-10-29 03:45:00,44.4,42.2,29.26,South,180,0.0,0.0,92,0.00,,,0.00,VWS V14.01,2013-10-29 03:45:00,
2013-10-29 03:50:00,44.4,42.2,29.27,SW,225,0.0,0.0,92,0.00,,,0.00,VWS V14.01,2013-10-29 03:50:00,
2013-10-29 03:56:00,44.4,42.2,29.27,SW,225,0.0,0.0,92,0.00,,,0.00,VWS V14.01,2013-10-29 03:56:00,
2013-10-29 04:02:00,44.4,42.2,29.27,SW,225,0.0,0.0,92,0.00,,,0.00,VWS V14.01,2013-10-29 04:02:00,
2013-10-29 04:03:00,44.4,42.2,29.27,SW,225,0.0,0.0,92,0.00,,,0.00,VWS V14.01,2013-10-29 04:03:00,
2013-10-29 04:05:00,44.4,42.2,29.27,SW,225,0.0,0.0,92,0.00,,,0.00,VWS V14.01,2013-10-29 04:05:00,
2013-10-29 04:07:00,44.4,42.2,29.28,South,180,0.0,0.0,92,0.00,,,0.00,VWS V14.01,2013-10-29 04:07:00,
2013-10-29 04:10:00,44.6,42.4,29.28,SW,225,0.0,0.0,92,0.00,,,0.00,VWS V14.01,2013-10-29 04:10:00,
2013-10-29 04:16:00,44.8,42.6,29.27,South,180,0.0,0.0,92,0.00,,,0.00,VWS V14.01,2013-10-29 04:16:00,
2013-10-29 04:22:00,44.6,42.1,29.27,SW,225,0.0,0.0,91,0.00,,,0.00,VWS V14.01,2013-10-29 04:22:00,
2013-10-29 04:28:00,44.4,41.9,29.28,SW,225,0.0,0.0,91,0.00,,,0.00,VWS V14.01,2013-10-29 04:28:00,
2013-10-29 04:34:00,44.2,41.7,29.28,SSW,202,0.0,0.0,91,0.00,,,0.00,VWS V14.01,2013-10-29 04:34:00,
2013-10-29 04:39:00,44.2,42.0,29.28,South,180,0.0,0.0,92,0.00,,,0.00,VWS V14.01,2013-10-29 04:39:00,
2013-10-29 04:45:00,43.9,41.7,29.29,South,180,0.0,0.0,92,0.00,,,0.00,VWS V14.01,2013-10-29 04:45:00,
2013-10-29 04:51:00,43.9,41.7,29.29,SSW,202,0.0,0.0,92,0.00,,,0.00,VWS V14.01,2013-10-29 04:51:00,
2013-10-29 04:57:00,43.9,41.7,29.29,SSW,202,0.0,0.0,92,0.00,,,0.00,VWS V14.01,2013-10-29 04:57:00,
2013-10-29 05:02:00,43.9,41.7,29.29,North,0,0.0,0.0,92,0.00,,,0.00,VWS V14.01,2013-10-29 05:02:00,
2013-10-29 05:08:00,43.9,41.7,29.29,SSW,202,0.0,0.0,92,0.00,,,0.00,VWS V14.01,2013-10-29 05:08:00,
2013-10-29 05:14:00,43.9,41.7,29.29,SSE,157,0.0,0.0,92,0.00,,,0.00,VWS V14.01,2013-10-29 05:14:00,
2013-10-29 05:20:00,43.9,41.7,29.30,SSW,202,0.0,0.0,92,0.00,,,0.00,VWS V14.01,2013-10-29 05:20:00,
2013-10-29 05:25:00,43.9,41.7,29.30,SSW,202,0.0,0.0,92,0.00,,,0.00,VWS V14.01,2013-10-29 05:25:00,
2013-10-29 05:31:00,43.7,41.5,29.30,SW,225,0.0,0.0,92,0.00,,,0.00,VWS V14.01,2013-10-29 05:31:00,
2013-10-29 05:37:00,43.7,41.5,29.30,North,0,0.0,0.0,92,0.00,,,0.00,VWS V14.01,2013-10-29 05:37:00,
2013-10-29 05:43:00,43.5,41.3,29.30,SSW,202,0.0,0.0,92,0.00,,,0.00,VWS V14.01,2013-10-29 05:43:00,
2013-10-29 05:49:00,43.5,41.3,29.31,SW,225,0.0,0.0,92,0.00,,,0.00,VWS V14.01,2013-10-29 05:49:00,
2013-10-29 05:54:00,43.7,41.5,29.31,South,180,0.0,0.0,92,0.00,,,0.00,VWS V14.01,2013-10-29 05:54:00,
2013-10-29 06:00:00,43.9,41.7,29.31,SW,225,0.0,0.0,92,0.00,,,0.00,VWS V14.01,2013-10-29 06:00:00,
2013-10-29 06:06:00,43.9,41.7,29.32,SSW,202,0.0,0.0,92,0.00,,,0.00,VWS V14.01,2013-10-29 06:06:00,
2013-10-29 06:12:00,43.9,41.5,29.32,North,0,0.0,0.0,91,0.00,,,0.00,VWS V14.01,2013-10-29 06:12:00,
2013-10-29 06:17:00,43.7,41.2,29.33,SSW,202,0.0,0.0,91,0.00,,,0.00,VWS V14.01,2013-10-29 06:17:00,
2013-10-29 06:22:00,43.5,41.0,29.32,SSW,202,0.0,0.0,91,0.00,,,0.00,VWS V14.01,2013-10-29 06:22:00,
2013-10-29 06:27:00,43.5,41.0,29.32,SW,225,0.0,0.0,91,0.00,,,0.00,VWS V14.01,2013-10-29 06:27:00,
2013-10-29 06:33:00,43.5,41.3,29.33,SSW,202,0.0,0.0,92,0.00,,,0.00,VWS V14.01,2013-10-29 06:33:00,
2013-10-29 06:38:00,43.5,41.3,29.33,SW,225,0.0,0.0,92,0.00,,,0.00,VWS V14.01,2013-10-29 06:38:00,
2013-10-29 06:44:00,43.5,41.3,29.34,SW,225,0.0,0.0,92,0.00,,,0.00,VWS V14.01,2013-10-29 06:44:00,
2013-10-29 06:49:00,43.5,41.3,29.34,SSW,202,0.0,0.0,92,0.00,,,0.00,VWS V14.01,2013-10-29 06:49:00,
2013-10-29 06:54:00,43.3,40.8,29.34,North,0,0.0,0.0,91,0.00,,,0.00,VWS V14.01,2013-10-29 06:54:00,
2013-10-29 06:59:00,43.2,40.8,29.34,SW,225,0.0,0.0,91,0.00,,,0.00,VWS V14.01,2013-10-29 06:59:00,
2013-10-29 07:05:00,43.3,40.8,29.35,SSW,202,0.0,0.0,91,0.00,,,0.00,VWS V14.01,2013-10-29 07:05:00,
2013-10-29 07:11:00,43.5,41.3,29.35,South,180,0.0,0.0,92,0.00,,,0.00,VWS V14.01,2013-10-29 07:11:00,
2013-10-29 07:17:00,43.5,41.3,29.36,SSW,202,0.0,0.0,92,0.00,,,0.00,VWS V14.01,2013-10-29 07:17:00,
2013-10-29 07:23:00,43.5,41.3,29.36,North,0,0.0,0.0,92,0.00,,,0.00,VWS V14.01,2013-10-29 07:23:00,
2013-10-29 07:28:00,43.9,41.7,29.37,SW,225,0.0,0.0,92,0.00,,,0.00,VWS V14.01,2013-10-29 07:28:00,
2013-10-29 07:33:00,44.4,42.2,29.36,SSW,202,0.0,0.0,92,0.00,,,0.00,VWS V14.01,2013-10-29 07:33:00,
2013-10-29 07:38:00,45.0,42.8,29.36,SSW,202,0.0,0.0,92,0.00,,,0.00,VWS V14.01,2013-10-29 07:38:00,
2013-10-29 07:44:00,45.7,43.2,29.37,SW,225,0.0,0.0,91,0.00,,,0.00,VWS V14.01,2013-10-29 07:44:00,
2013-10-29 07:49:00,46.2,43.1,29.38,SW,225,0.0,0.0,89,0.00,,,0.00,VWS V14.01,2013-10-29 07:49:00,
2013-10-29 07:55:00,46.6,43.5,29.38,South,180,0.0,0.0,89,0.00,,,0.00,VWS V14.01,2013-10-29 07:55:00,
2013-10-29 08:00:00,46.9,43.5,29.38,SSW,202,0.0,0.0,88,0.00,,,0.00,VWS V14.01,2013-10-29 08:00:00,
2013-10-29 08:05:00,47.5,43.8,29.39,NNW,337,0.0,0.0,87,0.00,,,0.00,VWS V14.01,2013-10-29 08:05:00,
2013-10-29 08:11:00,47.8,43.5,29.39,SW,225,0.0,0.0,85,0.00,,,0.00,VWS V14.01,2013-10-29 08:11:00,
2013-10-29 08:17:00,48.0,43.7,29.39,SW,225,0.0,0.0,85,0.00,,,0.00,VWS V14.01,2013-10-29 08:17:00,
2013-10-29 08:23:00,48.4,43.8,29.39,SW,225,0.0,0.0,84,0.00,,,0.00,VWS V14.01,2013-10-29 08:23:00,
2013-10-29 08:29:00,48.6,43.7,29.39,SW,225,0.0,0.0,83,0.00,,,0.00,VWS V14.01,2013-10-29 08:29:00,
2013-10-29 08:35:00,48.7,43.5,29.40,SSW,202,0.0,0.0,82,0.00,,,0.00,VWS V14.01,2013-10-29 08:35:00,
2013-10-29 08:40:00,48.7,43.8,29.40,SW,225,0.0,0.0,83,0.00,,,0.00,VWS V14.01,2013-10-29 08:40:00,
2013-10-29 08:45:00,48.7,43.8,29.40,SSW,202,0.0,0.0,83,0.00,,,0.00,VWS V14.01,2013-10-29 08:45:00,
2013-10-29 08:50:00,48.9,44.0,29.40,SW,225,0.0,0.0,83,0.00,,,0.00,VWS V14.01,2013-10-29 08:50:00,
2013-10-29 08:56:00,49.1,43.8,29.41,SSW,202,0.0,0.0,82,0.00,,,0.00,VWS V14.01,2013-10-29 08:56:00,
2013-10-29 09:01:00,49.1,43.8,29.41,SSW,202,0.0,0.0,82,0.00,,,0.00,VWS V14.01,2013-10-29 09:01:00,
2013-10-29 09:06:00,49.1,43.8,29.41,SW,225,0.0,0.0,82,0.00,,,0.00,VWS V14.01,2013-10-29 09:06:00,
2013-10-29 09:12:00,49.1,43.5,29.41,SSW,202,0.0,0.0,81,0.00,,,0.00,VWS V14.01,2013-10-29 09:12:00,
2013-10-29 09:18:00,49.3,43.7,29.41,North,0,0.0,0.0,81,0.00,,,0.00,VWS V14.01,2013-10-29 09:18:00,
2013-10-29 09:24:00,49.5,43.9,29.41,SSW,202,0.0,0.0,81,0.00,,,0.00,VWS V14.01,2013-10-29 09:24:00,
2013-10-29 09:30:00,49.6,44.0,29.41,North,0,0.0,0.0,81,0.00,,,0.00,VWS V14.01,2013-10-29 09:30:00,
2013-10-29 09:35:00,49.8,43.9,29.42,SSW,202,0.0,0.0,80,0.00,,,0.00,VWS V14.01,2013-10-29 09:35:00,
2013-10-29 09:41:00,50.2,44.3,29.42,North,0,0.0,0.0,80,0.00,,,0.00,VWS V14.01,2013-10-29 09:41:00,
2013-10-29 09:46:00,50.5,44.6,29.43,SW,225,0.0,0.0,80,0.00,,,0.00,VWS V14.01,2013-10-29 09:46:00,
2013-10-29 09:51:00,50.7,44.4,29.43,SSW,202,0.0,0.0,79,0.00,,,0.00,VWS V14.01,2013-10-29 09:51:00,
2013-10-29 09:56:00,51.1,44.8,29.43,North,0,0.0,0.0,79,0.00,,,0.00,VWS V14.01,2013-10-29 09:56:00,
2013-10-29 10:02:00,51.6,44.6,29.43,North,0,0.0,0.0,77,0.00,,,0.00,VWS V14.01,2013-10-29 10:02:00,
2013-10-29 10:08:00,52.0,44.7,29.42,SW,225,0.0,0.0,76,0.00,,,0.00,VWS V14.01,2013-10-29 10:08:00,
2013-10-29 10:14:00,52.5,44.8,29.43,SSE,157,0.0,0.0,75,0.00,,,0.00,VWS V14.01,2013-10-29 10:14:00,
2013-10-29 10:20:00,52.9,44.8,29.44,North,0,0.0,0.0,74,0.00,,,0.00,VWS V14.01,2013-10-29 10:20:00,
2013-10-29 10:26:00,53.2,45.1,29.44,SSW,202,0.0,0.0,74,0.00,,,0.00,VWS V14.01,2013-10-29 10:26:00,
2013-10-29 10:32:00,53.8,45.4,29.44,SSW,202,0.0,0.0,73,0.00,,,0.00,VWS V14.01,2013-10-29 10:32:00,
2013-10-29 10:37:00,54.5,45.7,29.44,SW,225,0.0,0.0,72,0.00,,,0.00,VWS V14.01,2013-10-29 10:37:00,
2013-10-29 10:42:00,54.9,45.3,29.44,SSW,202,0.0,0.0,70,0.00,,,0.00,VWS V14.01,2013-10-29 10:42:00,
2013-10-29 10:48:00,54.5,45.3,29.45,SW,225,0.0,0.0,71,0.00,,,0.00,VWS V14.01,2013-10-29 10:48:00,
2013-10-29 10:53:00,54.7,45.5,29.45,SW,225,0.0,0.0,71,0.00,,,0.00,VWS V14.01,2013-10-29 10:53:00,
2013-10-29 10:58:00,55.0,45.4,29.45,South,180,0.0,0.0,70,0.00,,,0.00,VWS V14.01,2013-10-29 10:58:00,
2013-10-29 11:03:00,55.4,45.0,29.45,SW,225,0.0,0.0,68,0.00,,,0.00,VWS V14.01,2013-10-29 11:03:00,
2013-10-29 11:09:00,55.2,44.5,29.45,North,0,0.0,0.0,67,0.00,,,0.00,VWS V14.01,2013-10-29 11:09:00,
2013-10-29 11:15:00,55.2,44.8,29.45,SSW,202,0.0,0.0,68,0.00,,,0.00,VWS V14.01,2013-10-29 11:15:00,
2013-10-29 11:21:00,55.4,45.0,29.45,North,0,0.0,0.0,68,0.00,,,0.00,VWS V14.01,2013-10-29 11:21:00,
2013-10-29 11:26:00,55.2,44.0,29.46,North,0,0.0,0.0,66,0.00,,,0.00,VWS V14.01,2013-10-29 11:26:00,
2013-10-29 11:32:00,55.0,44.3,29.46,SSW,202,0.0,0.0,67,0.00,,,0.00,VWS V14.01,2013-10-29 11:32:00,
2013-10-29 11:38:00,55.4,44.6,29.46,SW,225,0.0,0.0,67,0.00,,,0.00,VWS V14.01,2013-10-29 11:38:00,
2013-10-29 11:44:00,55.8,44.6,29.47,SW,225,0.0,0.0,66,0.00,,,0.00,VWS V14.01,2013-10-29 11:44:00,
2013-10-29 11:50:00,55.4,44.2,29.46,North,0,0.0,0.0,66,0.00,,,0.00,VWS V14.01,2013-10-29 11:50:00,
2013-10-29 11:55:00,55.2,44.0,29.45,NNW,337,0.0,0.0,66,0.00,,,0.00,VWS V14.01,2013-10-29 11:55:00,
2013-10-29 12:01:00,55.4,44.2,29.46,North,0,0.0,0.0,66,0.00,,,0.00,VWS V14.01,2013-10-29 12:01:00,
2013-10-29 12:06:00,55.6,43.6,29.46,SSW,202,0.0,0.0,64,0.00,,,0.00,VWS V14.01,2013-10-29 12:06:00,
2013-10-29 12:11:00,55.4,42.6,29.46,SSW,202,0.0,0.0,62,0.00,,,0.00,VWS V14.01,2013-10-29 12:11:00,
2013-10-29 12:17:00,54.9,41.7,29.47,NNW,337,0.0,0.0,61,0.00,,,0.00,VWS V14.01,2013-10-29 12:17:00,
2013-10-29 12:23:00,54.3,42.0,29.47,SSW,202,0.0,0.0,63,0.00,,,0.00,VWS V14.01,2013-10-29 12:23:00,
2013-10-29 12:29:00,54.3,42.8,29.47,North,0,0.0,0.0,65,0.00,,,0.00,VWS V14.01,2013-10-29 12:29:00,
2013-10-29 12:34:00,54.7,43.2,29.47,North,0,0.0,0.0,65,0.00,,,0.00,VWS V14.01,2013-10-29 12:34:00,
2013-10-29 12:40:00,54.9,41.7,29.47,NNW,337,0.0,0.0,61,0.00,,,0.00,VWS V14.01,2013-10-29 12:40:00,
2013-10-29 12:46:00,54.7,41.5,29.47,SSW,202,0.0,0.0,61,0.00,,,0.00,VWS V14.01,2013-10-29 12:46:00,
2013-10-29 12:52:00,54.5,41.8,29.47,NW,315,0.0,0.0,62,0.00,,,0.00,VWS V14.01,2013-10-29 12:52:00,
2013-10-29 12:57:00,54.7,42.0,29.47,SSW,202,0.0,0.0,62,0.00,,,0.00,VWS V14.01,2013-10-29 12:57:00,
2013-10-29 13:03:00,54.3,40.7,29.47,North,0,0.0,0.0,60,0.00,,,0.00,VWS V14.01,2013-10-29 13:03:00,
2013-10-29 13:08:00,54.0,40.9,29.47,South,180,0.0,0.0,61,0.00,,,0.00,VWS V14.01,2013-10-29 13:08:00,
2013-10-29 13:13:00,53.8,41.1,29.47,SSW,202,0.0,0.0,62,0.00,,,0.00,VWS V14.01,2013-10-29 13:13:00,
2013-10-29 13:18:00,54.0,41.7,29.47,NW,315,0.0,0.0,63,0.00,,,0.00,VWS V14.01,2013-10-29 13:18:00,
2013-10-29 13:23:00,54.3,41.2,29.48,North,0,0.0,0.0,61,0.00,,,0.00,VWS V14.01,2013-10-29 13:23:00,
2013-10-29 13:29:00,55.6,41.5,29.48,North,0,0.0,0.0,59,0.00,,,0.00,VWS V14.01,2013-10-29 13:29:00,
2013-10-29 13:34:00,55.2,40.2,29.48,North,0,0.0,0.0,57,0.00,,,0.00,VWS V14.01,2013-10-29 13:34:00,
2013-10-29 13:39:00,55.9,40.5,29.48,SW,225,0.0,0.0,56,0.00,,,0.00,VWS V14.01,2013-10-29 13:39:00,
2013-10-29 13:45:00,56.3,39.9,29.48,South,180,0.0,0.0,54,0.00,,,0.00,VWS V14.01,2013-10-29 13:45:00,
2013-10-29 13:50:00,55.8,39.9,29.48,SSW,202,0.0,0.0,55,0.00,,,0.00,VWS V14.01,2013-10-29 13:50:00,
2013-10-29 13:55:00,56.3,40.4,29.48,NNW,337,0.0,0.0,55,0.00,,,0.00,VWS V14.01,2013-10-29 13:55:00,
2013-10-29 14:01:00,56.5,40.5,29.49,SSW,202,0.0,0.0,55,0.00,,,0.00,VWS V14.01,2013-10-29 14:01:00,
2013-10-29 14:07:00,55.9,40.5,29.49,SW,225,0.0,0.0,56,0.00,,,0.00,VWS V14.01,2013-10-29 14:07:00,
2013-10-29 14:12:00,54.7,40.7,29.49,SSW,202,0.0,0.0,59,0.00,,,0.00,VWS V14.01,2013-10-29 14:12:00,
2013-10-29 14:18:00,54.5,40.9,29.49,North,0,0.0,0.0,60,0.00,,,0.00,VWS V14.01,2013-10-29 14:18:00,
2013-10-29 14:23:00,55.8,40.8,29.49,North,0,0.0,0.0,57,0.00,,,0.00,VWS V14.01,2013-10-29 14:23:00,
2013-10-29 14:29:00,57.4,39.9,29.49,SW,225,0.0,0.0,52,0.00,,,0.00,VWS V14.01,2013-10-29 14:29:00,
2013-10-29 14:34:00,57.9,39.4,29.49,SSW,202,0.0,0.0,50,0.00,,,0.00,VWS V14.01,2013-10-29 14:34:00,
2013-10-29 14:40:00,58.8,40.7,29.50,SW,225,0.0,0.0,51,0.00,,,0.00,VWS V14.01,2013-10-29 14:40:00,
2013-10-29 14:46:00,59.5,40.3,29.50,SSW,202,0.0,0.0,49,0.00,,,0.00,VWS V14.01,2013-10-29 14:46:00,
2013-10-29 14:52:00,60.4,41.2,29.50,SSW,202,0.0,0.0,49,0.00,,,0.00,VWS V14.01,2013-10-29 14:52:00,
2013-10-29 14:57:00,61.5,41.7,29.50,SW,225,0.0,0.0,48,0.00,,,0.00,VWS V14.01,2013-10-29 14:57:00,
2013-10-29 15:03:00,61.9,42.0,29.50,SSW,202,0.0,0.0,48,0.00,,,0.00,VWS V14.01,2013-10-29 15:03:00,
2013-10-29 15:09:00,60.6,40.8,29.51,North,0,0.0,0.0,48,0.00,,,0.00,VWS V14.01,2013-10-29 15:09:00,
2013-10-29 15:15:00,56.8,38.9,29.51,North,0,0.0,0.0,51,0.00,,,0.00,VWS V14.01,2013-10-29 15:15:00,
2013-10-29 15:20:00,55.0,39.2,29.52,North,0,0.0,0.0,55,0.00,,,0.00,VWS V14.01,2013-10-29 15:20:00,
2013-10-29 15:26:00,53.8,38.9,29.52,North,0,0.0,0.0,57,0.00,,,0.00,VWS V14.01,2013-10-29 15:26:00,
2013-10-29 15:31:00,53.2,38.8,29.51,North,0,0.0,0.0,58,0.00,,,0.00,VWS V14.01,2013-10-29 15:31:00,
2013-10-29 15:37:00,52.9,38.5,29.51,SSW,202,0.0,0.0,58,0.00,,,0.00,VWS V14.01,2013-10-29 15:37:00,
2013-10-29 15:42:00,52.7,38.3,29.51,SSW,202,0.0,0.0,58,0.00,,,0.00,VWS V14.01,2013-10-29 15:42:00,
2013-10-29 15:47:00,52.3,38.4,29.52,SSW,202,0.0,0.0,59,0.00,,,0.00,VWS V14.01,2013-10-29 15:47:00,
2013-10-29 15:53:00,52.0,38.6,29.52,SW,225,0.0,0.0,60,0.00,,,0.00,VWS V14.01,2013-10-29 15:53:00,
2013-10-29 15:59:00,51.6,39.0,29.52,SSW,202,0.0,0.0,62,0.00,,,0.00,VWS V14.01,2013-10-29 15:59:00,
2013-10-29 16:04:00,52.0,39.4,29.51,SW,225,0.0,0.0,62,0.00,,,0.00,VWS V14.01,2013-10-29 16:04:00,
2013-10-29 16:09:00,51.4,38.8,29.52,SSW,202,0.0,0.0,62,0.00,,,0.00,VWS V14.01,2013-10-29 16:09:00,
2013-10-29 16:14:00,52.0,39.4,29.52,SSW,202,0.0,0.0,62,0.00,,,0.00,VWS V14.01,2013-10-29 16:14:00,
2013-10-29 16:20:00,52.0,39.4,29.52,SSW,202,0.0,0.0,62,0.00,,,0.00,VWS V14.01,2013-10-29 16:20:00,
2013-10-29 16:26:00,50.5,39.2,29.52,SSW,202,0.0,0.0,65,0.00,,,0.00,VWS V14.01,2013-10-29 16:26:00,
2013-10-29 16:31:00,49.8,38.9,29.53,SSW,202,0.0,0.0,66,0.00,,,0.00,VWS V14.01,2013-10-29 16:31:00,
2013-10-29 16:37:00,48.9,38.4,29.53,SSW,202,0.0,0.0,67,0.00,,,0.00,VWS V14.01,2013-10-29 16:37:00,
2013-10-29 16:42:00,48.4,38.3,29.54,SW,225,0.0,0.0,68,0.00,,,0.00,VWS V14.01,2013-10-29 16:42:00,
2013-10-29 16:48:00,47.8,38.5,29.54,SW,225,0.0,0.0,70,0.00,,,0.00,VWS V14.01,2013-10-29 16:48:00,
2013-10-29 16:53:00,47.3,38.4,29.54,SW,225,0.0,0.0,71,0.00,,,0.00,VWS V14.01,2013-10-29 16:53:00,
2013-10-29 16:58:00,47.1,38.5,29.54,SSW,202,0.0,0.0,72,0.00,,,0.00,VWS V14.01,2013-10-29 16:58:00,
2013-10-29 17:03:00,46.9,38.7,29.54,SSW,202,0.0,0.0,73,0.00,,,0.00,VWS V14.01,2013-10-29 17:03:00,
2013-10-29 17:09:00,46.9,38.7,29.55,SW,225,0.0,0.0,73,0.00,,,0.00,VWS V14.01,2013-10-29 17:09:00,
2013-10-29 17:14:00,46.6,38.4,29.55,SW,225,0.0,0.0,73,0.00,,,0.00,VWS V14.01,2013-10-29 17:14:00,
2013-10-29 17:20:00,46.2,38.4,29.55,North,0,0.0,0.0,74,0.00,,,0.00,VWS V14.01,2013-10-29 17:20:00,
2013-10-29 17:26:00,46.2,38.4,29.55,SSW,202,0.0,0.0,74,0.00,,,0.00,VWS V14.01,2013-10-29 17:26:00,
2013-10-29 17:31:00,46.2,38.4,29.56,SW,225,0.0,0.0,74,0.00,,,0.00,VWS V14.01,2013-10-29 17:31:00,
2013-10-29 17:36:00,46.2,38.4,29.55,SSW,202,0.0,0.0,74,0.00,,,0.00,VWS V14.01,2013-10-29 17:36:00,
2013-10-29 17:41:00,46.0,38.5,29.56,SW,225,0.0,0.0,75,0.00,,,0.00,VWS V14.01,2013-10-29 17:41:00,
2013-10-29 17:47:00,46.0,38.5,29.56,SW,225,0.0,0.0,75,0.00,,,0.00,VWS V14.01,2013-10-29 17:47:00,
2013-10-29 17:53:00,45.7,38.2,29.56,SSW,202,0.0,0.0,75,0.00,,,0.00,VWS V14.01,2013-10-29 17:53:00,
2013-10-29 17:59:00,45.7,38.6,29.56,SSW,202,0.0,0.0,76,0.00,,,0.00,VWS V14.01,2013-10-29 17:59:00,
2013-10-29 18:05:00,45.5,38.0,29.56,SSW,202,0.0,0.0,75,0.00,,,0.00,VWS V14.01,2013-10-29 18:05:00,
2013-10-29 18:10:00,45.1,38.0,29.57,SSW,202,0.0,0.0,76,0.00,,,0.00,VWS V14.01,2013-10-29 18:10:00,
2013-10-29 18:16:00,45.0,38.2,29.57,SSW,202,0.0,0.0,77,0.00,,,0.00,VWS V14.01,2013-10-29 18:16:00,
2013-10-29 18:21:00,45.0,38.2,29.57,SSW,202,0.0,0.0,77,0.00,,,0.00,VWS V14.01,2013-10-29 18:21:00,
2013-10-29 18:27:00,44.6,37.8,29.57,SSW,202,0.0,0.0,77,0.00,,,0.00,VWS V14.01,2013-10-29 18:27:00,
2013-10-29 18:33:00,44.4,38.0,29.57,South,180,0.0,0.0,78,0.00,,,0.00,VWS V14.01,2013-10-29 18:33:00,
2013-10-29 18:38:00,44.4,38.0,29.58,SSW,202,0.0,0.0,78,0.00,,,0.00,VWS V14.01,2013-10-29 18:38:00,
2013-10-29 18:44:00,44.4,38.0,29.58,SSW,202,0.0,0.0,78,0.00,,,0.00,VWS V14.01,2013-10-29 18:44:00,
2013-10-29 18:49:00,44.6,38.2,29.57,SW,225,0.0,0.0,78,0.00,,,0.00,VWS V14.01,2013-10-29 18:49:00,
2013-10-29 18:54:00,44.6,38.2,29.58,SSW,202,0.0,0.0,78,0.00,,,0.00,VWS V14.01,2013-10-29 18:54:00,
2013-10-29 19:00:00,44.4,38.0,29.58,SW,225,0.0,0.0,78,0.00,,,0.00,VWS V14.01,2013-10-29 19:00:00,
2013-10-29 19:06:00,44.4,38.0,29.58,North,0,0.0,0.0,78,0.00,,,0.00,VWS V14.01,2013-10-29 19:06:00,
2013-10-29 19:12:00,44.4,38.3,29.58,SSW,202,0.0,0.0,79,0.00,,,0.00,VWS V14.01,2013-10-29 19:12:00,
2013-10-29 19:17:00,44.4,38.3,29.59,SSW,202,0.0,0.0,79,0.00,,,0.00,VWS V14.01,2013-10-29 19:17:00,
2013-10-29 19:23:00,44.2,38.1,29.58,SW,225,0.0,0.0,79,0.00,,,0.00,VWS V14.01,2013-10-29 19:23:00,
2013-10-29 19:29:00,44.2,38.4,29.59,SSW,202,0.0,0.0,80,0.00,,,0.00,VWS V14.01,2013-10-29 19:29:00,
2013-10-29 19:35:00,44.1,38.3,29.59,SSW,202,0.0,0.0,80,0.00,,,0.00,VWS V14.01,2013-10-29 19:35:00,
2013-10-29 19:40:00,43.9,38.1,29.59,SSW,202,0.0,0.0,80,0.00,,,0.00,VWS V14.01,2013-10-29 19:40:00,
2013-10-29 19:46:00,43.7,38.3,29.60,SW,225,0.0,0.0,81,0.00,,,0.00,VWS V14.01,2013-10-29 19:46:00,
2013-10-29 19:52:00,43.7,38.6,29.60,SW,225,0.0,0.0,82,0.00,,,0.00,VWS V14.01,2013-10-29 19:52:00,
2013-10-29 19:58:00,43.5,38.4,29.60,SSW,202,0.0,0.0,82,0.00,,,0.00,VWS V14.01,2013-10-29 19:58:00,
2013-10-29 20:04:00,43.5,38.4,29.61,SW,225,0.0,0.0,82,0.00,,,0.00,VWS V14.01,2013-10-29 20:04:00,
2013-10-29 20:10:00,43.2,38.4,29.61,SW,225,0.0,0.0,83,0.00,,,0.00,VWS V14.01,2013-10-29 20:10:00,
2013-10-29 20:15:00,43.0,38.2,29.61,SSW,202,0.0,0.0,83,0.00,,,0.00,VWS V14.01,2013-10-29 20:15:00,
2013-10-29 20:21:00,43.0,38.5,29.61,SW,225,0.0,0.0,84,0.00,,,0.00,VWS V14.01,2013-10-29 20:21:00,
2013-10-29 20:26:00,42.8,38.3,29.61,SSW,202,0.0,0.0,84,0.00,,,0.00,VWS V14.01,2013-10-29 20:26:00,
2013-10-29 20:32:00,42.6,38.1,29.62,SSW,202,0.0,0.0,84,0.00,,,0.00,VWS V14.01,2013-10-29 20:32:00,
2013-10-29 20:38:00,42.6,38.4,29.62,SSW,202,0.0,0.0,85,0.00,,,0.00,VWS V14.01,2013-10-29 20:38:00,
2013-10-29 20:43:00,42.6,38.4,29.62,SSW,202,0.0,0.0,85,0.00,,,0.00,VWS V14.01,2013-10-29 20:43:00,
2013-10-29 20:49:00,42.4,38.5,29.62,SSW,202,0.0,0.0,86,0.00,,,0.00,VWS V14.01,2013-10-29 20:49:00,
2013-10-29 20:54:00,42.4,38.5,29.62,SSW,202,0.0,0.0,86,0.00,,,0.00,VWS V14.01,2013-10-29 20:54:00,
2013-10-29 20:59:00,42.4,38.5,29.63,SSW,202,0.0,0.0,86,0.00,,,0.00,VWS V14.01,2013-10-29 20:59:00,
2013-10-29 21:05:00,42.4,38.5,29.62,SSW,202,0.0,0.0,86,0.00,,,0.00,VWS V14.01,2013-10-29 21:05:00,
2013-10-29 21:11:00,42.4,38.8,29.62,SSW,202,0.0,0.0,87,0.00,,,0.00,VWS V14.01,2013-10-29 21:11:00,
2013-10-29 21:16:00,42.4,38.8,29.62,SSW,202,0.0,0.0,87,0.00,,,0.00,VWS V14.01,2013-10-29 21:16:00,
2013-10-29 21:21:00,42.4,38.8,29.63,South,180,0.0,0.0,87,0.00,,,0.00,VWS V14.01,2013-10-29 21:21:00,
2013-10-29 21:27:00,42.4,38.8,29.63,South,180,0.0,0.0,87,0.00,,,0.00,VWS V14.01,2013-10-29 21:27:00,
2013-10-29 21:32:00,42.3,39.0,29.63,South,180,0.0,0.0,88,0.00,,,0.00,VWS V14.01,2013-10-29 21:32:00,
2013-10-29 21:38:00,42.4,39.1,29.63,SSW,202,0.0,0.0,88,0.00,,,0.00,VWS V14.01,2013-10-29 21:38:00,
2013-10-29 21:43:00,42.3,38.7,29.64,SSW,202,0.0,0.0,87,0.00,,,0.00,VWS V14.01,2013-10-29 21:43:00,
2013-10-29 21:48:00,42.1,38.5,29.63,South,180,0.0,0.0,87,0.00,,,0.00,VWS V14.01,2013-10-29 21:48:00,
2013-10-29 21:54:00,42.1,38.8,29.64,SSW,202,0.0,0.0,88,0.00,,,0.00,VWS V14.01,2013-10-29 21:54:00,
2013-10-29 22:01:00,42.1,38.8,29.64,SSW,202,0.0,0.0,88,0.00,,,0.00,VWS V14.01,2013-10-29 22:01:00,
2013-10-29 22:06:00,41.9,38.6,29.64,SSW,202,0.0,0.0,88,0.00,,,0.00,VWS V14.01,2013-10-29 22:06:00,
2013-10-29 22:12:00,41.7,38.4,29.65,SSW,202,0.0,0.0,88,0.00,,,0.00,VWS V14.01,2013-10-29 22:12:00,
2013-10-29 22:18:00,41.7,38.4,29.64,SSW,202,0.0,0.0,88,0.00,,,0.00,VWS V14.01,2013-10-29 22:18:00,
2013-10-29 22:23:00,41.7,38.7,29.65,SSW,202,0.0,0.0,89,0.00,,,0.00,VWS V14.01,2013-10-29 22:23:00,
2013-10-29 22:29:00,41.9,38.9,29.65,SSW,202,0.0,0.0,89,0.00,,,0.00,VWS V14.01,2013-10-29 22:29:00,
2013-10-29 22:34:00,41.7,38.7,29.65,SSW,202,0.0,0.0,89,0.00,,,0.00,VWS V14.01,2013-10-29 22:34:00,
2013-10-29 22:39:00,41.9,38.9,29.65,SSW,202,0.0,0.0,89,0.00,,,0.00,VWS V14.01,2013-10-29 22:39:00,
2013-10-29 22:45:00,41.9,38.9,29.65,SSW,202,0.0,0.0,89,0.00,,,0.00,VWS V14.01,2013-10-29 22:45:00,
2013-10-29 22:50:00,41.7,38.7,29.65,SSW,202,0.0,0.0,89,0.00,,,0.00,VWS V14.01,2013-10-29 22:50:00,
2013-10-29 22:56:00,41.5,38.5,29.65,SSW,202,0.0,0.0,89,0.00,,,0.00,VWS V14.01,2013-10-29 22:56:00,
2013-10-29 23:02:00,41.5,38.5,29.65,SSW,202,0.0,0.0,89,0.00,,,0.00,VWS V14.01,2013-10-29 23:02:00,
2013-10-29 23:08:00,41.5,38.5,29.65,SSW,202,0.0,0.0,89,0.00,,,0.00,VWS V14.01,2013-10-29 23:08:00,
2013-10-29 23:14:00,41.5,38.5,29.65,SSW,202,0.0,0.0,89,0.00,,,0.00,VWS V14.01,2013-10-29 23:14:00,
2013-10-29 23:19:00,41.5,38.8,29.65,South,180,0.0,0.0,90,0.00,,,0.00,VWS V14.01,2013-10-29 23:19:00,
2013-10-29 23:25:00,41.5,38.8,29.65,South,180,0.0,0.0,90,0.00,,,0.00,VWS V14.01,2013-10-29 23:25:00,
2013-10-29 23:31:00,41.5,38.8,29.66,South,180,0.0,0.0,90,0.00,,,0.00,VWS V14.01,2013-10-29 23:31:00,
2013-10-29 23:36:00,41.5,38.8,29.67,SW,225,0.0,0.0,90,0.00,,,0.00,VWS V14.01,2013-10-29 23:36:00,
2013-10-29 23:42:00,41.5,38.8,29.67,SSW,202,0.0,0.0,90,0.00,,,0.00,VWS V14.01,2013-10-29 23:42:00,
2013-10-29 23:48:00,41.5,38.8,29.67,South,180,0.0,0.0,90,0.00,,,0.00,VWS V14.01,2013-10-29 23:48:00,
2013-10-29 23:54:00,41.4,38.7,29.67,SSW,202,0.0,0.0,90,0.00,,,0.00,VWS V14.01,2013-10-29 23:54:00,